Location: Mountain Grove
(34.0887°N, 86.6172°W)
Time: 22:01:43
(UTC+00:00)

Cosmos 1092 Rocket - Pass Details

Date: 14 July 2020
Orbit: 955 x 994 km, 83.0° (Epoch: 08 August)

Event Time Altitude Azimuth Distance (km) Brightness Sun altitude
Rises 09:53:49 0° 354° (N) 3,714 7.5 -10.1°
Reaches altitude 10° 09:56:22 10° 354° (N) 2,759 6.8 -9.6°
Maximum altitude 10:02:43 88° 85° (E) 992 4.1 -8.6°
Drops below altitude 10° 10:08:58 10° 175° (S) 2,721 6.1 -7.5°
Sets 10:11:28 0° 175° (S) 3,660 6.7 -7.0°
